Regional Weather Roundup
Issued by NWS Wakefield, VA

Home | Current Version | Previous Version | Text Only | Print | Product List | Glossary Off
Versions: 1 2 3 4 5 6 7 8 9 10 11 12 13 14 15 16 17 18 19 20 21 22 23 24 25 26 27 28

000
ASUS41 KAKQ 032115
RWRAKQ

REGIONAL WEATHER ROUNDUP
NATIONAL WEATHER SERVICE WAKEFIELD VA
400 PM EST SAT DEC 03 2016

Note: "fair" indicates few or no clouds below 12,000 feet with no
significant weather and/or obstructions to visibility. * = Denotes
station may not report precipitation (e.g., rain,snow,etc.),
thunder or fog.

VAZ042-051-052>054-056-032200-
NORTHERN VIRGINIA

CITY           SKY/WX    TMP DP  RH WIND       PRES   REMARKS
WASH NATIONAL  PTCLDY    48  29  47 NW18G24   30.25R
DULLES         PTCLDY    45  27  49 NW14G22   30.25R
FORT BELVOIR   NOT AVBL
QUANTICO       CLEAR     48  27  44 N13G24    30.24R
FREDERICKSBRG* PTCLDY    49  32  51 N5        30.22F
STAFFORD*      CLEAR     46  30  52 N7        30.27S
WARRENTON      CLEAR     47  25  41 N7        30.23S
CULPEPER*      PTCLDY    48  31  51 CALM      30.24S
MANASSAS*      CLEAR     46  28  49 N12       30.25R
LEESBURG*      CLOUDY    45  32  61 NW10G17   30.26R
WINCHESTER     MOCLDY    39  27  60 NW14      30.26S
FRONT ROYAL*   FAIR      43  28  56 NW8G16    30.24S
LURAY*         FAIR      45  32  61 NW12      30.23S
$$

VAZ048-049-060>072-079>083-032200-
CENTRAL AND SOUTH CENTRAL VIRGINIA

CITY           SKY/WX    TMP DP  RH WIND       PRES   REMARKS
RICHMOND       MOCLDY    49  29  46 NW6       30.23R
CHESTERFIELD*  FAIR      48  21  34 NW5       30.24R
PETERSBURG*    PTCLDY    48  29  47 W6        30.24S
HANOVER        PTCLDY    49  29  46 NW6       30.24R
TAPPAHANNOCK*  PTCLDY    49  24  37 NW5       30.23S
QUINTON*       FAIR      49  31  49 W6        30.23R
CHARLOTTSVILLE PTCLDY    50  29  44 CALM      30.21F
GORDONSVILLE*  FAIR      49  29  46 CALM      30.21F
ORANGE*          N/A     50  30  46 CALM      30.24S
LOUISA*        PTCLDY    52  34  50 NW5       30.21F
BUMPASS*       FAIR      48  31  50 CALM      30.23S
FARMVILLE*     PTCLDY    49  31  50 CALM      30.23F
CREWE*         FAIR      47  29  49 W3        30.24R
FORT PICKETT*  FAIR      47  22  38 W6        30.24R
CHASE CITY*    FAIR      47  27  44 NW5       30.23F
CLARKSVILLE*   FAIR      48  28  46 N6        30.23F
SOUTH HILL*    PTCLDY    48  30  49 NW3       30.29F
LAWRENCEVILLE* FAIR      48  28  45 NW5       30.24R
EMPORIA*       PTCLDY    50  30  46 NW7       30.26R
$$

VAZ088>098-032200-
SOUTHEAST VIRGINIA

CITY           SKY/WX    TMP DP  RH WIND       PRES   REMARKS
NORFOLK        PTCLDY    51  30  44 W6        30.22R
VIRGINIA BEACH MOCLDY    50  30  46 NW9       30.21R
NORFOLK NAVAL  MOCLDY    50  30  46 NW10      30.24R
WEST POINT*    CLEAR     49  28  44 NW3       30.24S
SALUDA*        FAIR      48  32  54 NW7G17    30.22R
NEWPORT NEWS   CLEAR     50  30  46 W8        30.23R
LANGLEY AFB    CLEAR     50  31  48 NW8       30.22R
FORT EUSTIS    PTCLDY    50  33  51 NW10      30.20R
WILLIAMSBURG*  CLOUDY    52  32  46 NW9       30.24R
HR EXEC AP*    FAIR      50  28  43 NW6       30.20S
FRANKLIN*      CLEAR     50  30  45 W9        30.24R
US460-WAKEFLD  MOCLDY    49  30  48 VRB3      30.23R
$$

VAZ020-022-025-037-045-032200-
WEST CENTRAL AND SOUTHWEST VIRGINIA

CITY           SKY/WX    TMP DP  RH WIND       PRES   REMARKS
STAUNTON*      CLOUDY    45  29  53 CALM      30.24S
WAYNESBORO*    FAIR      44  26  50 CALM      30.22S
HOT SPRINGS VA CLOUDY    30  27  86 NW16G22   30.15S WCI  19
LYNCHBURG      CLOUDY    45  27  49 CALM      30.25S
DANVILLE       PTCLDY    48  28  46 N8        30.24F
SOUTH BOSTON*  FAIR      49  26  40 NW7       30.24F
MARTINSVILLE   PTSUNNY   46  26  44 N6        30.26S
ROANOKE        CLOUDY    43  27  53 NW10      30.27S
BLACKSBURG     PTCLDY    38  28  66 NW3       30.26S
DUBLIN*        CLOUDY    39  27  63 N6        30.25S
MARION*        CLOUDY    37  28  69 NW7       30.25F
HILLSVILLE*    CLOUDY    37  28  72 CALM      30.19F
RICHLANDS*     FAIR      34  28  77 CALM      30.25S
WISE*          CLOUDY    36  28  75 NE3       30.25S
ABINGDON*      MOSUNNY   41  28  60 CALM      30.25S
$$

MDZ021>025-VAZ099-100-032200-
SOUTHERN MARYLAND AND THE DELMARVA PENINSULA

CITY           SKY/WX    TMP DP  RH WIND       PRES   REMARKS
PATUXENT RIVER PTCLDY    48  29  47 NW17      30.21R
BAY BRIDGE APT CLEAR     48  32  53 NW16G23   30.21R
LEONARDTOWN    CLEAR     46  30  53 W10G16    30.23R
DOVER          NOT AVBL
GEORGETOWN     CLEAR     51  29  42 NW9G20    30.17R
EASTON         CLEAR     48  28  46 NW15G24   30.24R
CAMBRIDGE      CLEAR     46  32  57 NW9G21    30.20R
SALISBURY      CLEAR     49  30  48 NW13G23   30.18R
OCEAN CITY     CLEAR     50  29  44 NW15G25   30.16R
WALLOPS ISLAND CLEAR     49  31  49 NW12G21   30.19R
ACCOMACK*      CLEAR     48  33  55 NW10G20   30.20R
$$

NCZ012>017-030>032-032200-
NORTH CENTRAL AND EASTERN NORTH CAROLINA

CITY           SKY/WX    TMP DP  RH WIND       PRES   REMARKS
ROANOKE RAPIDS FAIR      50  32  50 NW3       30.24R
RALEIGH        MOCLDY    52  27  38 CALM      30.24S
ELIZABETH CITY CLEAR     50  29  44 N9        30.21R
AHOSKIE*       CLEAR     47  31  52 CALM      30.24R
EDENTON*       CLEAR     52  32  46 CALM      30.23R
CURRITUCK*     CLEAR     52  29  41 NW8       30.22R
KILL DEVIL HLS CLEAR     49  35  57 N6        30.19R
MANTEO         CLEAR     49  32  51 N5        30.21R
CAPE HATTERAS  PTCLDY    52  33  48 VRB5      30.20R
TARBORO*       NOT AVBL
GOLDSBORO      MOCLDY    52  27  37 NW7       30.22R
WASHINGTON     PTCLDY    53  30  42 N6        30.23R
GREENVILLE     PTCLDY    52  30  43 N5        30.23S
NEW BERN       PTCLDY    51  31  46 N6        30.22R
WILMINGTON     CLOUDY    51  31  46 N5        30.23S
$$

VAZ048-032200-
ELSEWHERE

CITY           SKY/WX    TMP DP  RH WIND       PRES   REMARKS
HARRISBURG PA  MOCLDY    46  32  58 NW13      30.18R
BALTIMORE      MOCLDY    47  30  51 NW16G23   30.22R
ANNAPOLIS      PTCLDY    50  30  46 W13G20    30.22R
ANDREWS AFB    NOT AVBL
PHILADELPHIA   MOCLDY    49  31  49 NW17      30.15R
HENDERSON NC   CLEAR     47  26  42 N3        30.23S
GREENSBORO     CLOUDY    49  28  44 NW3       30.22S
ROCKY MOUNT    PTCLDY    52  29  41 N7        30.23S
$$

VAZ100-032200-
MARINE

STATION/POSITION TIME  TEMP    WIND        PRES    WAVE   SWELL
                       AIR SEA DIR/SP/G            HT/PER HT/PER
                 (UTC) (F)     (DEG/KT/KT) (MB)    (FT/S) (FT/S)
BRANDYWINE LGT   2048   49     340/ 19/ 24   N/A
CAPE MAY NJ      2048   48 47  320/ 19/ 27 1020.1R
LEWES DE         2048   50 49  310/ 22/ 24 1020.7R
OCEAN-CITY-INLET 2048   50 51  340/ 14/ 18 1021.3R
WACHAPREAGUE VA  2048   49 50  330/  4/ 11 1022.5R
THOMAS POINT MD  2100   48 50  300/ 18/ 20   N/A
GOOSES REEF MD   2100   49 50  330/ 16/ 19 1023.7    2/ 3
COVE POINT MD    2048   48     340/ 16/ 19 1023.6R
SOLOMONS ISLAND  2048   48 52  320/ 11/ 15   N/A
BISHOPS HEAD MD  2048   48 46  310/ 13/ 19 1023.3R
PINEY POINT MD   2048          320/ 19/ 21   N/A
POTOMAC MD       2100   49 51  300/ 19/ 23 1022.3    2/ 3
CAMBRIDGE MD     2048   49 48  300/ 12/ 15 1022.1R
LEWISETTA VA     2048   48 50  320/ 14/ 18 1023.2R
RAPPAHANNOCK LGT 2048          310/ 17/ 18 1023.3R
STINGRAY PT      2050   49     310/ 17/ 19 1023.3R
YORK RVR RNG VA  2048   50     320/ 11/ 12 1022.7R
YORKTOWN VA      2048   50 53  330/ 12/ 14 1022.9R
JAMESTOWN VA     2100   50 53  310/ 10/ 12   N/A     1
DOMINION TERM VA 2048   50     310/ 14/ 16 1023.1R
KIPTOPEKE VA     2048      52  340/ 16/ 19   N/A
CHES BAY BRIDGE  2048   50 53  340/ 10/ 12 1022.7R
CAPE HENRY VA    2048   49     320/ 13/ 14   N/A
WILLOUBY STN VA  2048   50     300/ 13/ 14 1024.0R
S CRANEY ISL VA  2048   50     300/  9/ 13 1022.7R
CAPE HENRY BUOY  2042      56                N/A     3/ 3
1ST LANDING BUOY 2100   50 53              1023.5    2/ 3
CAPE CHARLES BUO 2056      56                N/A     3/ 5
OFFSHORE WE BUOY 2051      56                N/A     4/ 5
64NM E OF VA BCH 2050   51 60  330/ 19/ 23 1021.5R   6/ 6
DUCK PIER NC     2048   50 56  330/ 10/ 13 1022.5R
44100 DUCK FRF   2035      57                N/A     4/ 5
OREGON INLET NC  2036   50 55  330/  9/ 13 1022.7R
HATTERAS NC      2048   51 58  340/ 12/ 15 1022.4R
DIAMOND SHLS NC  2050   65 74  360/ 16/ 19 1022.5R   5/ 8   3/ 8
CAPE LOOKOUT NC  2100   51     360/  9/ 10 1022.7R
$$




USA.gov is the U.S. government's official web portal to all federal, state and local government web resources and services.